CAPE
48 24 42 168 418 426 351 281 196 41 20 27 6 0 0 0 0 0 0 0 0 0 0 0 0 0 0 0 0 0 0 0
269 175 194 317 454 419 291 180 74 11 0 4 0 0 0 0 0 0 0 0 0 0 0 0 0 0 0 0 0 0 0 0
539 436 362 453 488 404 278 151 58 10 0 0 0 0 0 0 0 0 0 0 0 0 0 0 0 0 0 0 0 0 0 0
575 621 565 470 436 345 354 196 120 24 0 0 0 0 0 0 0 0 0 0 0 0 0 0 0 0 0 0 0 0 0 0
345 561 601 491 316 286 359 259 167 56 0 0 0 0 0 0 0 0 0 0 0 0 0 0 0 0 0 0 0 0 0 0
129 364 523 512 253 135 188 194 101 69 11 0 0 0 0 0 0 0 0 0 0 0 0 0 0 0 0 0 0 0 0 0
48 38 280 351 268 124 69 135 148 82 51 0 0 0 0 0 0 0 0 0 0 0 0 0 0 0 0 0 0 0 0 0
26 133 208 320 331 321 239 241 178 153 179 39 0 0 0 0 0 0 0 0 0 0 0 0 0 0 0 0 0 0 0 0
159 267 354 270 302 324 244 347 184 77 78 15 0 0 0 0 0 0 0 0 0 0 0 0 0 0 0 0 0 0 0 0
240 428 565 576 555 469 404 184 78 1 0 0 0 0 0 0 0 0 0 0 0 0 0 0 0 0 0 0 0 0 0 0
273 432 528 555 496 149 55 48 0 0 0 0 0 0 0 0 0 0 0 0 0 0 0 0 0 0 0 0 0 0 0 0
347 431 380 332 136 170 50 0 0 0 0 0 0 0 0 0 0 0 0 0 0 0 0 0 0 0 0 0 0 0 0 0
337 413 280 197 266 67 0 0 0 0 0 0 0 0 0 0 0 0 0 0 0 0 0 0 0 0 0 0 0 0 0 0
237 201 231 177 86 1 0 0 0 0 0 0 0 0 0 0 0 0 0 0 0 0 0 0 0 0 0 0 0 0 0 0
195 149 118 29 0 0 0 0 0 0 0 0 0 0 0 0 0 0 0 0 0 0 0 0 0 0 0 0 0 0 0 0
8 22 25 2 0 0 0 0 0 0 0 0 0 0 0 0 0 0 0 0 0 0 0 0 0 0 0 0 0 0 0 0
0 0 0 0 0 0 0 0 0 0 0 0 0 0 0 0 0 0 0 0 0 0 0 0 0 0 0 0 0 0 0 0
0 0 0 0 0 0 0 0 0 0 0 0 0 0 0 0 0 0 0 0 0 0 0 0 0 0 0 0 0 0 0 0
0 0 0 0 0 0 0 0 0 0 0 0 0 0 0 0 0 0 0 0 0 0 0 0 0 0 0 0 0 0 0 0
CIN
-225 -261 -236 -175 -102 -86 -107 -127 -150 -245 -280 -257 -164 -0 -0 -0 -0 -0 -0 -0 -0 -0 -0 -0 -0 -0 -0 -0 -0 -0 -0 -0
-188 -211 -198 -145 -107 -124 -154 -192 -245 -282 -0 -297 -0 -0 -0 -0 -0 -0 -0 -0 -0 -0 -0 -0 -0 -0 -0 -0 -0 -0 -0 -0
-187 -193 -188 -171 -148 -163 -185 -217 -277 -320 -0 -0 -0 -0 -0 -0 -0 -0 -0 -0 -0 -0 -0 -0 -0 -0 -0 -0 -0 -0 -0 -0
-184 -190 -216 -220 -214 -244 -216 -267 -269 -318 -0 -0 -0 -0 -0 -0 -0 -0 -0 -0 -0 -0 -0 -0 -0 -0 -0 -0 -0 -0 -0 -0
-198 -207 -226 -265 -319 -309 -243 -232 -252 -319 -0 -0 -0 -0 -0 -0 -0 -0 -0 -0 -0 -0 -0 -0 -0 -0 -0 -0 -0 -0 -0 -0
-262 -236 -244 -271 -299 -325 -290 -243 -245 -287 -267 -0 -0 -0 -0 -0 -0 -0 -0 -0 -0 -0 -0 -0 -0 -0 -0 -0 -0 -0 -0 -0
-284 -370 -308 -303 -301 -277 -282 -247 -260 -273 -234 -0 -0 -0 -0 -0 -0 -0 -0 -0 -0 -0 -0 -0 -0 -0 -0 -0 -0 -0 -0 -0
-286 -289 -282 -281 -274 -243 -247 -231 -227 -212 -176 -228 -0 -0 -0 -0 -0 -0 -0 -0 -0 -0 -0 -0 -0 -0 -0 -0 -0 -0 -0 -0
-247 -264 -275 -254 -237 -228 -238 -209 -242 -231 -189 -150 -0 -0 -0 -0 -0 -0 -0 -0 -0 -0 -0 -0 -0 -0 -0 -0 -0 -0 -0 -0
-224 -249 -218 -230 -217 -232 -240 -249 -251 -53 -0 -0 -0 -0 -0 -0 -0 -0 -0 -0 -0 -0 -0 -0 -0 -0 -0 -0 -0 -0 -0 -0
-272 -271 -225 -211 -205 -296 -354 -283 -0 -0 -0 -0 -0 -0 -0 -0 -0 -0 -0 -0 -0 -0 -0 -0 -0 -0 -0 -0 -0 -0 -0 -0
-223 -231 -262 -238 -310 -299 -338 -0 -0 -0 -0 -0 -0 -0 -0 -0 -0 -0 -0 -0 -0 -0 -0 -0 -0 -0 -0 -0 -0 -0 -0 -0
-174 -212 -273 -286 -259 -334 -1 -0 -0 -0 -0 -0 -0 -0 -0 -0 -0 -0 -0 -0 -0 -0 -0 -0 -0 -0 -0 -0 -0 -0 -0 -0
-258 -306 -270 -252 -301 -78 -0 -0 -0 -0 -0 -0 -0 -0 -0 -0 -0 -0 -0 -0 -0 -0 -0 -0 -0 -0 -0 -0 -0 -0 -0 -0
-187 -255 -267 -302 -0 -0 -0 -0 -0 -0 -0 -0 -0 -0 -0 -0 -0 -0 -0 -0 -0 -0 -0 -0 -0 -0 -0 -0 -0 -0 -0 -0
-49 -231 -223 -57 -0 -0 -0 -0 -0 -0 -0 -0 -0 -0 -0 -0 -0 -0 -0 -0 -0 -0 -0 -0 -0 -0 -0 -0 -0 -0 -0 -0
-0 -0 -0 -0 -0 -0 -0 -0 -0 -0 -0 -0 -0 -0 -0 -0 -0 -0 -0 -0 -0 -0 -0 -0 -0 -0 -0 -0 -0 -0 -0 -0
-0 -0 -0 -0 -0 -0 -0 -0 -0 -0 -0 -0 -0 -0 -0 -0 -0 -0 -0 -0 -0 -0 -0 -0 -0 -0 -0 -0 -0 -0 -0 -0
-0 -0 -0 -0 -0 -0 -0 -0 -0 -0 -0 -0 -0 -0 -0 -0 -0 -0 -0 -0 -0 -0 -0 -0 -0 -0 -0 -0 -0 -0 -0 -0
Wind_Speed
30 31 31 29 28 25 20 20 21 19 15 12 10 8 7 7 7 8 8 8 9 10 11 11 13 15 18 20 24 24 25 27
28 29 29 28 26 22 20 18 19 16 13 12 11 10 8 7 9 9 9 8 9 10 10 11 13 17 21 23 24 27 29 27
26 27 26 24 23 21 19 20 19 18 16 12 7 6 4 6 6 8 8 8 9 9 10 12 15 19 21 26 28 28 28 28
28 26 24 22 22 21 21 21 18 16 13 7 5 5 6 6 5 7 7 8 9 10 12 14 18 21 24 29 29 28 28 26
26 24 22 22 21 19 17 15 17 14 12 7 4 2 1 4 3 4 7 8 10 12 14 18 20 23 29 30 29 27 27 28
20 24 21 17 12 14 15 15 12 11 11 8 4 3 4 3 4 4 7 9 11 13 16 19 23 24 28 31 29 30 27 27
18 13 12 8 7 10 13 12 11 7 9 9 6 5 4 4 4 4 7 10 12 14 17 19 22 26 28 31 26 28 26 27
15 17 16 9 14 15 12 11 10 7 6 7 6 6 6 5 5 6 8 10 12 13 16 20 24 25 28 28 27 29 28 28
17 18 16 13 15 14 8 9 7 4 4 5 5 6 7 7 7 8 9 10 11 13 19 23 23 25 25 27 28 29 28 27
14 13 14 12 13 11 10 8 5 5 4 4 5 6 8 8 8 8 9 9 12 16 20 21 22 24 25 26 28 29 27 28
6 8 10 9 8 6 5 5 5 4 4 5 6 6 7 6 6 6 7 10 15 16 17 21 21 23 25 27 28 28 29 30
7 9 9 8 5 3 2 2 3 3 3 3 3 4 5 6 6 7 10 13 12 14 18 19 20 22 25 27 28 30 31 32
7 7 6 4 4 3 3 3 4 3 3 4 5 6 6 8 9 9 11 12 13 17 17 18 20 22 26 28 30 30 31 31
4 3 4 5 6 6 7 8 7 6 5 6 7 7 9 11 12 12 12 13 15 16 16 18 22 25 29 28 28 30 29 28
4 7 7 7 9 10 10 9 9 9 7 8 9 10 12 12 13 13 14 14 16 16 17 20 24 27 28 28 27 27 27 26
10 10 9 11 13 12 11 11 11 10 10 11 12 13 13 13 14 15 15 16 17 20 22 24 29 30 27 27 26 26 26 26
12 9 9 11 13 13 13 13 12 11 12 13 15 15 17 18 16 15 17 18 21 26 29 31 32 29 26 25 24 25 25 24
21 21 17 13 12 11 11 12 12 12 13 14 14 14 14 14 15 17 19 22 25 27 29 32 33 31 29 25 23 23 23 23
22 23 22 22 18 17 16 14 13 13 14 15 14 13 14 16 17 19 23 23 28 30 30 31 32 31 29 26 23 22 22 22
Wind_Direction
161 164 167 167 163 155 140 141 142 139 125 111 106 90 61 59 51 22 20 26 31 20 19 17 7 1 355 351 346 346 345 344
161 165 166 165 161 153 148 142 145 139 132 128 128 126 105 52 22 31 34 37 28 22 13 4 359 353 349 347 346 342 341 340
161 165 164 163 160 157 154 155 152 151 151 144 121 112 49 27 36 25 19 26 21 13 5 358 355 351 350 349 345 341 339 341
170 165 163 162 166 166 167 166 162 162 160 147 347 348 355 360 11 7 19 21 15 7 0 356 353 352 347 344 343 342 339 340
177 171 167 171 173 168 169 167 171 170 169 176 191 211 273 335 352 15 14 9 6 3 358 354 350 348 346 344 344 342 339 336
177 182 183 174 169 170 173 174 175 178 185 199 215 239 295 324 353 2 358 3 359 356 354 352 349 345 345 343 340 340 340 337
188 187 185 193 195 186 176 179 182 187 197 208 231 231 274 295 314 325 338 347 350 355 353 351 348 346 343 343 341 340 340 338
194 189 192 195 185 185 183 185 197 195 209 232 239 253 266 270 270 296 320 333 339 341 347 344 342 342 339 341 340 338 336 333
188 187 188 188 186 187 201 189 205 232 253 248 250 266 272 285 289 296 311 325 333 345 344 339 339 340 341 340 338 337 335 333
173 180 182 183 181 189 193 197 232 260 268 260 267 278 287 287 293 306 319 332 338 334 334 338 337 339 338 338 336 336 336 335
144 157 168 175 183 196 198 218 237 256 272 276 275 290 295 293 294 293 307 318 322 324 329 332 334 336 336 336 335 336 333 332
140 148 155 156 155 167 196 232 246 260 279 304 301 307 308 308 302 300 308 316 317 321 324 328 331 333 336 336 335 333 332 333
144 152 160 170 183 218 232 238 237 259 304 319 309 305 304 299 298 301 309 312 314 321 325 328 330 333 334 332 331 332 333 334
321 297 240 234 239 261 283 292 290 290 296 301 304 295 297 296 297 299 304 306 312 320 324 325 328 329 330 331 332 332 333 334
287 297 284 281 286 291 289 288 288 287 287 289 288 287 292 295 296 301 307 313 320 324 326 326 328 327 327 328 330 333 335 335
304 301 295 294 300 297 290 287 288 283 279 283 283 291 299 302 307 314 319 322 329 331 331 328 326 326 326 326 329 331 332 333
332 322 300 292 295 296 295 291 284 285 285 295 307 314 319 324 327 332 336 335 335 332 328 327 328 328 327 326 327 328 330 333
332 337 340 335 327 315 307 308 307 305 307 314 318 321 324 328 330 331 331 330 329 329 328 327 327 328 328 325 324 327 328 331
339 341 343 343 343 341 337 335 331 328 327 328 330 331 331 333 331 329 328 327 325 325 326 327 327 328 329 327 325 325 327 329